| time (UTC) | temp C | wind direction | speed KPH | gust KPH | rain 1hr cm | rain 24hr cm | rain mn cm | humidity % | barometer mb |
| 20260504081604 | 5 | 278 | 0.0 | 0.0 | 0.00 | 0.00 | 0.00 | 97 | 1017.1 |
| 20260504050113 | 6 | 278 | 0.0 | 0.0 | 0.00 | 0.00 | 0.00 | 94 | 1018.1 |
| 20260504044555 | 6 | 278 | 0.0 | 0.0 | 0.00 | 0.00 | 0.00 | 93 | 1018.2 |
| 20260504043107 | 6 | 278 | 0.0 | 0.0 | 0.00 | 0.00 | 0.00 | 93 | 1018.2 |
| 20260504041553 | 6 | 278 | 0.0 | 0.0 | 0.00 | 0.00 | 0.00 | 92 | 1018.3 |
| 20260504040058 | 6 | 278 | 0.0 | 0.0 | 0.00 | 0.00 | 0.00 | 92 | 1018.2 |
| 20260504034554 | 6 | 278 | 0.0 | 1.6 | 0.00 | 0.00 | 0.00 | 91 | 1018.3 |
| 20260504033039 | 6 | 278 | 0.0 | 0.0 | 0.00 | 0.00 | 0.00 | 91 | 1018.2 |
| 20260504031534 | 7 | 278 | 0.0 | 0.0 | 0.00 | 0.00 | 0.00 | 90 | 1018.5 |
| 20260504030017 | 7 | 278 | 0.0 | 0.0 | 0.00 | 0.00 | 0.00 | 89 | 1018.5 |
| 20260504024517 | 7 | 278 | 0.0 | 0.0 | 0.00 | 0.00 | 0.00 | 88 | 1018.6 |
| 20260504023006 | 7 | 278 | 0.0 | 0.0 | 0.00 | 0.00 | 0.00 | 87 | 1018.4 |
| 20260504021505 | 8 | 278 | 0.0 | 0.0 | 0.00 | 0.00 | 0.00 | 86 | 1018.2 |
| 20260504020005 | 8 | 278 | 0.0 | 0.0 | 0.00 | 0.00 | 0.00 | 84 | 1018.1 |
| 20260504014505 | 9 | 278 | 0.0 | 0.0 | 0.00 | 0.00 | 0.00 | 83 | 1018.2 |
| 20260504013010 | 10 | 278 | 0.0 | 0.0 | 0.00 | 0.00 | 0.00 | 81 | 1017.9 |
| 20260504011503 | 10 | 278 | 0.0 | 0.0 | 0.00 | 0.00 | 0.00 | 79 | 1017.8 |
| 20260504010003 | 11 | 278 | 0.0 | 0.0 | 0.00 | 0.00 | 0.00 | 76 | 1017.8 |
| 20260504004505 | 12 | 278 | 0.0 | 0.0 | 0.00 | 0.00 | 0.00 | 73 | 1017.6 |
| 20260504003044 | 13 | 278 | 0.0 | 0.0 | 0.00 | 0.00 | 0.00 | 69 | 1017.4 |
| 20260504001551 | 15 | 278 | 0.0 | 0.0 | 0.00 | 0.00 | 0.00 | 65 | 1017.5 |
| 20260504000039 | 16 | 278 | 0.0 | 0.0 | 0.00 | 0.00 | 0.00 | 60 | 1017.6 |
| 20260503234528 | 18 | 278 | 0.0 | 1.6 | 0.00 | 0.00 | 0.00 | 54 | 1017.6 |
| 20260503233027 | 18 | 275 | 0.0 | 1.6 | 0.00 | 0.00 | 0.00 | 51 | 1017.7 |
| 20260503231525 | 18 | 294 | 0.0 | 4.8 | 0.00 | 0.00 | 0.00 | 48 | 1017.9 |
| 20260503230023 | 19 | 309 | 1.6 | 9.7 | 0.00 | 0.00 | 0.00 | 46 | 1018.2 |
| 20260503224521 | 20 | 249 | 1.6 | 6.4 | 0.00 | 0.00 | 0.00 | 45 | 1018.4 |
| 20260503223019 | 20 | 257 | 1.6 | 8.0 | 0.00 | 0.00 | 0.00 | 44 | 1018.5 |
| 20260503221517 | 21 | 211 | 1.6 | 8.0 | 0.00 | 0.00 | 0.00 | 44 | 1018.6 |
| 20260503220005 | 20 | 319 | 0.0 | 6.4 | 0.00 | 0.00 | 0.00 | 43 | 1018.5 |
| 20260503214513 | 20 | 328 | 0.0 | 6.4 | 0.00 | 0.00 | 0.00 | 45 | 1018.6 |
| 20260503213059 | 20 | 25 | 1.6 | 9.7 | 0.00 | 0.00 | 0.00 | 44 | 1018.8 |
| 20260503211557 | 20 | 279 | 1.6 | 9.7 | 0.00 | 0.00 | 0.00 | 49 | 1019.0 |
| 20260503210058 | 19 | 306 | 3.2 | 11.3 | 0.00 | 0.00 | 0.00 | 47 | 1019.2 |
| 20260503204602 | 19 | 219 | 0.0 | 4.8 | 0.00 | 0.00 | 0.00 | 49 | 1019.4 |
| 20260503203058 | 19 | 287 | 0.0 | 9.7 | 0.00 | 0.00 | 0.00 | 47 | 1019.7 |
| 20260503201547 | 19 | 322 | 3.2 | 8.0 | 0.00 | 0.00 | 0.00 | 50 | 1020.0 |
| 20260503200042 | 19 | 265 | 1.6 | 8.0 | 0.00 | 0.00 | 0.00 | 51 | 1020.3 |
| 20260503194529 | 19 | 318 | 1.6 | 6.4 | 0.00 | 0.00 | 0.00 | 50 | 1020.6 |
| 20260503193030 | 18 | 186 | 3.2 | 12.9 | 0.00 | 0.00 | 0.00 | 49 | 1020.9 |
| 20260503191529 | 18 | 171 | 0.0 | 9.7 | 0.00 | 0.00 | 0.00 | 50 | 1021.2 |
| 20260503190023 | 18 | 296 | 3.2 | 11.3 | 0.00 | 0.00 | 0.00 | 48 | 1021.4 |
| 20260503184527 | 18 | 254 | 1.6 | 6.4 | 0.00 | 0.00 | 0.00 | 48 | 1021.5 |
| 20260503183024 | 17 | 261 | 3.2 | 12.9 | 0.00 | 0.00 | 0.00 | 51 | 1021.8 |
| 20260503181520 | 17 | 254 | 4.8 | 16.1 | 0.00 | 0.00 | 0.00 | 53 | 1021.9 |
| 20260503180002 | 17 | 327 | 1.6 | 6.4 | 0.00 | 0.00 | 0.00 | 53 | 1022.2 |
| 20260503174558 | 17 | 55 | 0.0 | 11.3 | 0.00 | 0.00 | 0.00 | 54 | 1022.4 |
| 20260503173131 | 16 | 322 | 3.2 | 8.0 | 0.00 | 0.00 | 0.00 | 52 | 1022.4 |
| 20260503171548 | 16 | 257 | 0.0 | 11.3 | 0.00 | 0.00 | 0.00 | 51 | 1022.7 |